Tracking 31027 objects as of 19-Jul-2025
HD Live streaming from Space Station
objects crossing your sky now

ANIK F2

Track ANIK F2 now!
ANIK F2 is classified as:


NORAD ID: 28378
Int'l Code: 2004-027A
Perigee: 35,772.6 km
Apogee: 35,815.4 km
Inclination: 2.4 °
Period: 1,436.1 minutes
Semi major axis: 42165 km
RCS: 28.1838 m2 (large)
Launch date: July 18, 2004
Source: Canada (CA)
Launch site: FRENCH GUIANA (FRGUI)

24 30W C-band, 40 127W Ku-band, 50 90W transponders for broadband and telemedicine to northern US states and Canada
Your satellite tracking list
STARLINK-6351
Track 1 satellite(s)




NASA's NSSDC Master Catalog

Two Line Element Set (TLE):
1 28378U 04027A   25199.53473144 -.00000045  00000-0  00000-0 0  9998
2 28378   2.4225  83.8813 0005073  22.5606 271.5449  1.00270737 37911
Source of the keplerian elements: AFSPC